Regional Weather Roundup
Issued by NWS

Home | Current Version | Previous Version | Text Only | Print | Product List | Glossary Off
Versions: 1 2 3 4 5 6 7 8 9 10 11 12 13 14 15 16 17 18 19 20 21 22 23 24 25 26 27 28 29 30 31 32 33 34 35 36 37 38 39 40 41 42 43 44 45 46 47 48 49 50

000
ASUS43 KLSX 230307
RWRMO

WEATHER SUMMARY FOR MISSOURI
NATIONAL WEATHER SERVICE SPRINGFIELD MO
1000 PM CDT SUN OCT 22 2017

NOTE: "FAIR" INDICATES FEW OR NO CLOUDS BELOW 12,000 FEET WITH NO
       SIGNIFICANT WEATHER AND/OR OBSTRUCTIONS TO VISIBILITY.
       CURRENT SKY AND/OR WEATHER CONDITIONS ARE NOT AVAILABLE FOR
       CHILLICOTHE AND FARMINGTON.

MOZ001>031-035>038-043-044-053-054-230400-
...NORTHERN AND WESTERN MISSOURI...

CITY           SKY/WX    TMP DP  RH WIND       PRES   REMARKS
KANSAS CTY INT CLEAR     47  40  76 S8        30.06F
KANSAS C DTWN  CLEAR     53  50  89 NE3       30.07F
LEE`S SUMMIT   CLEAR     52  43  71 SE9       30.08F
ST JOSEPH      CLEAR     46  45  96 CALM      30.06S
CHILLICOTHE      N/A     47  46  97 CALM      30.08F
KIRKSVILLE     CLOUDY    49  49 100 CALM      30.07F

$$
MOZ066>068-077>081-088>096-101>105-230400-
...SOUTHWEST MISSOURI...

CITY           SKY/WX    TMP DP  RH WIND       PRES   REMARKS
SPRINGFIELD    MOCLDY    52  49  89 NW5       30.09F
JOPLIN         CLEAR     45  45 100 MISG      30.11F
BRANSON        CLOUDY    50  48  93 CALM      30.11S

$$
MOZ032>034-039>042-045>050-055>058-069>072-230400-
...CENTRAL MISSOURI...

CITY           SKY/WX    TMP DP  RH WIND       PRES   REMARKS
COLUMBIA       CLOUDY    52  51  97 W5        30.08S
JEFFERSON CITY MOCLDY    53  50  89 CALM      30.08S
ROLLA          LGT RAIN  50  50 100 NW8       30.09R
SEDALIA        PTCLDY    52  51  97 SW5       30.09F
WHITEMAN AFB   CLEAR     46  45  95 S3        30.04F
WARRENSBURG    CLEAR     45  41  87 SE5       30.08F
OSAGE BEACH    CLOUDY    51  50  96 CALM      30.09F

$$
MOZ051-052-059>065-230400-
...EAST CENTRAL MISSOURI...

CITY           SKY/WX    TMP DP  RH WIND       PRES   REMARKS
ST LOUIS INTL  LGT RAIN  52  51  97 N10       30.03F FOG
SPIRIT OF STL  LGT RAIN  53  52  96 W8        30.04R
ST CHARLES     CLOUDY    53  51  93 NW10      30.03S

$$
MOZ072>076-082>087-097>100-106>115-230400-
...SOUTH CENTRAL AND SOUTHEAST MISSOURI...

CITY           SKY/WX    TMP DP  RH WIND       PRES   REMARKS
CAPE GIRARDEAU RAIN      54  52  93 NW9       29.96S FOG
FARMINGTON     RAIN      51  49  92 N10       30.02S
POPLAR BLUFF   CLOUDY    54  53  97 NW9       29.98F
WEST PLAINS    LGT RAIN  50  48  93 N13       30.07S FOG

$$



USA.gov is the U.S. government's official web portal to all federal, state and local government web resources and services.